Home   Weather   Carson City   Past weeks

Flag for USA Past Weather in Carson City, Nevada, USA — Yesterday and Last 2 Weeks

Now
44 °F

Clear.


Feels Like: 44 °F
Forecast: 37 / 72 °F
Wind: No wind

Location: Reno Tahoe International Airport

Current Time: Apr 30, 2017 at 4:31:30 am

Latest Report: Apr 30, 2017 at 3:55 am


Visibility: 10 mi

Pressure: 30.15 "Hg (25.34 "Hg at 1425m altitude)

Humidity: 49%

Dew Point: 26 °F

Location of Carson CityLocation

Past Weather in Carson City — Graph

°F

Carson City Temperature Yesterday

Maximum temperature yesterday: 65 °F (at 4:55 pm)
Minimum temperature yesterday: 36 °F (at 4:55 am)
Average temperature yesterday: 52 °F

High & Low Weather Summary for the Past Weeks

 TemperatureHumidityPressure
High74 °F (Apr 22, 12:55 pm)86% (Apr 18, 6:55 am)30.28 "Hg (Apr 18, 6:55 am)
Low33 °F (Apr 15, 5:55 am)8% (Apr 19, 12:55 pm)29.73 "Hg (Apr 24, 5:55 am)
Average52 °F42%29.98 "Hg
* Reported Apr 15 2:55 am — Apr 30 2:55 am, Carson City, Weather by CustomWeather, © 2017

Note: Actual official high and low records may vary slightly from our data, if they occured in-between our weather recording intervals... More about our weather records

Advertising

Carson City Weather History for the Previous 24 Hours

Scroll right to see more
 ConditionsComfort  
Time TempWeatherWind HumidityBarometerVisibility
2:55 am
Sun, Apr 30
46 °FPassing clouds.No wind44%30.14 "Hg10 mi
1:55 am47 °FPassing clouds.No wind41%30.14 "Hg10 mi
12:55 am49 °FPassing clouds.5 mph38%30.15 "Hg10 mi
11:55 pm
Sat, Apr 29
51 °FPassing clouds.3 mph33%30.15 "Hg10 mi
10:55 pm53 °FPassing clouds.3 mph32%30.16 "Hg10 mi
9:55 pm57 °FPassing clouds.3 mph23%30.14 "Hg10 mi
8:55 pm59 °FPassing clouds.6 mph18%30.13 "Hg10 mi
7:55 pm62 °FPassing clouds.6 mph16%30.11 "Hg10 mi
6:55 pm64 °FPartly sunny.No wind13%30.11 "Hg10 mi
5:55 pm65 °FScattered clouds.3 mph12%30.10 "Hg10 mi
4:55 pm65 °FScattered clouds.5 mph13%30.12 "Hg10 mi
3:55 pm64 °FScattered clouds.6 mph13%30.13 "Hg10 mi
2:55 pm63 °FPassing clouds.5 mph16%30.15 "Hg10 mi
1:55 pm61 °FSunny.8 mph17%30.18 "Hg10 mi
12:55 pm60 °FSunny.6 mph19%30.20 "Hg10 mi
11:55 am57 °FSunny.9 mph21%30.22 "Hg10 mi
10:55 am55 °FSunny.8 mph23%30.22 "Hg10 mi
9:55 am52 °FSunny.8 mph27%30.23 "Hg10 mi
8:55 am49 °FSunny.5 mph33%30.24 "Hg10 mi
7:55 am42 °FSunny.3 mph43%30.25 "Hg10 mi
6:55 am37 °FSunny.No wind50%30.24 "Hg10 mi
5:55 am36 °FClear.No wind52%30.22 "Hg10 mi
4:55 am36 °FClear.No wind48%30.22 "Hg10 mi
Weather by CustomWeather, © 2017

See weather overviewHow to use our weather pages